| time (UTC) | temp C | wind direction | speed KPH | gust KPH | rain 1hr cm | rain 24hr cm | rain mn cm | humidity % | barometer mb |
| 20260906131125 | 10 | 263 | 0.0 | 0.0 | 0.00 | 0.08 | 0.08 | 87 | 1026.8 |
| 20260906130625 | 11 | 263 | 0.0 | 0.0 | 0.00 | 0.08 | 0.08 | 86 | 1026.8 |
| 20260906130106 | 11 | 263 | 0.0 | 0.0 | 0.00 | 0.08 | 0.08 | 86 | 1026.8 |
| 20260906125549 | 11 | 263 | 0.0 | 0.0 | 0.00 | 0.08 | 0.08 | 87 | 1026.7 |
| 20260906125055 | 11 | 263 | 0.0 | 0.0 | 0.00 | 0.08 | 0.08 | 87 | 1026.7 |
| 20260906124558 | 11 | 263 | 0.0 | 0.0 | 0.00 | 0.08 | 0.08 | 87 | 1026.7 |
| 20260906124102 | 11 | 263 | 0.0 | 0.0 | 0.00 | 0.08 | 0.08 | 87 | 1026.5 |
| 20260906123558 | 11 | 263 | 0.0 | 3.2 | 0.00 | 0.08 | 0.08 | 87 | 1026.5 |
| 20260906123038 | 11 | 263 | 0.0 | 1.6 | 0.00 | 0.08 | 0.08 | 87 | 1026.5 |
| 20260906122532 | 11 | 263 | 0.0 | 4.8 | 0.00 | 0.08 | 0.08 | 87 | 1026.0 |
| 20260906122024 | 11 | 263 | 0.0 | 4.8 | 0.00 | 0.08 | 0.08 | 87 | 1026.0 |
| 20260906121525 | 11 | 263 | 1.6 | 3.2 | 0.00 | 0.08 | 0.08 | 86 | 1026.0 |
| 20260906121031 | 11 | 263 | 1.6 | 6.4 | 0.00 | 0.08 | 0.08 | 86 | 1026.0 |
| 20260906120516 | 11 | 263 | 1.6 | 1.6 | 0.00 | 0.08 | 0.08 | 86 | 1026.0 |
| 20260906120011 | 11 | 263 | 1.6 | 6.4 | 0.00 | 0.08 | 0.08 | 86 | 1026.0 |
| 20260906115515 | 11 | 263 | 1.6 | 3.2 | 0.00 | 0.08 | 0.08 | 86 | 1026.1 |
| 20260906115001 | 11 | 263 | 1.6 | 3.2 | 0.00 | 0.08 | 0.08 | 86 | 1026.1 |
| 20260906114506 | 11 | 263 | 1.6 | 3.2 | 0.00 | 0.08 | 0.08 | 85 | 1026.1 |
| 20260906114015 | 11 | 263 | 1.6 | 3.2 | 0.00 | 0.08 | 0.08 | 85 | 1026.1 |
| 20260906113459 | 11 | 263 | 0.0 | 3.2 | 0.00 | 0.08 | 0.08 | 85 | 1026.1 |
| 20260906112939 | 11 | 263 | 0.0 | 0.0 | 0.00 | 0.08 | 0.08 | 84 | 1026.1 |
| 20260906112433 | 11 | 263 | 0.0 | 0.0 | 0.00 | 0.08 | 0.08 | 84 | 1026.0 |
| 20260906111313 | 11 | 263 | 0.0 | 0.0 | 0.00 | 0.08 | 0.08 | 84 | 1026.0 |
| 20260906110756 | 12 | 263 | 0.0 | 0.0 | 0.00 | 0.08 | 0.08 | 84 | 1026.0 |
| 20260906110241 | 12 | 263 | 0.0 | 0.0 | 0.00 | 0.08 | 0.08 | 84 | 1026.0 |
| 20260906105727 | 12 | 263 | 0.0 | 0.0 | 0.00 | 0.08 | 0.08 | 84 | 1025.9 |
| 20260906105208 | 12 | 263 | 0.0 | 4.8 | 0.00 | 0.08 | 0.08 | 84 | 1025.9 |
| 20260906104715 | 12 | 263 | 1.6 | 4.8 | 0.00 | 0.08 | 0.08 | 84 | 1025.9 |
| 20260906104209 | 12 | 263 | 1.6 | 4.8 | 0.00 | 0.08 | 0.08 | 83 | 1025.6 |
| 20260906103710 | 12 | 263 | 0.0 | 4.8 | 0.00 | 0.08 | 0.08 | 83 | 1025.6 |
| 20260906103159 | 12 | 263 | 0.0 | 3.2 | 0.00 | 0.08 | 0.08 | 83 | 1025.6 |
| 20260906102701 | 12 | 263 | 0.0 | 0.0 | 0.00 | 0.08 | 0.08 | 83 | 1025.5 |
| 20260906102159 | 12 | 263 | 0.0 | 4.8 | 0.00 | 0.08 | 0.08 | 82 | 1025.5 |
| 20260906100427 | 13 | 263 | 0.0 | 0.0 | 0.00 | 0.08 | 0.08 | 81 | 1025.4 |
| 20260906095913 | 13 | 263 | 0.0 | 0.0 | 0.00 | 0.08 | 0.08 | 81 | 1025.4 |
| 20260906094725 | 13 | 263 | 0.0 | 0.0 | 0.00 | 0.08 | 0.08 | 80 | 1025.4 |
| 20260906094231 | 13 | 263 | 0.0 | 0.0 | 0.00 | 0.08 | 0.08 | 80 | 1025.2 |
| 20260906093734 | 13 | 263 | 0.0 | 0.0 | 0.00 | 0.08 | 0.08 | 80 | 1025.2 |
| 20260906093219 | 13 | 263 | 0.0 | 0.0 | 0.00 | 0.08 | 0.08 | 79 | 1025.2 |
| 20260906092701 | 13 | 263 | 0.0 | 0.0 | 0.00 | 0.08 | 0.08 | 79 | 1025.2 |
| 20260906092158 | 13 | 263 | 0.0 | 3.2 | 0.00 | 0.08 | 0.08 | 79 | 1025.2 |
| 20260906091702 | 13 | 263 | 0.0 | 4.8 | 0.00 | 0.08 | 0.08 | 79 | 1025.2 |
| 20260906091159 | 13 | 263 | 1.6 | 4.8 | 0.00 | 0.08 | 0.08 | 78 | 1025.2 |
| 20260906090652 | 13 | 263 | 1.6 | 8.0 | 0.00 | 0.08 | 0.08 | 78 | 1025.2 |
| 20260906090145 | 14 | 263 | 3.2 | 8.0 | 0.00 | 0.08 | 0.08 | 77 | 1025.2 |
| 20260906085642 | 14 | 263 | 3.2 | 8.0 | 0.00 | 0.08 | 0.08 | 76 | 1025.2 |
| 20260906085137 | 14 | 263 | 3.2 | 6.4 | 0.00 | 0.08 | 0.08 | 76 | 1025.2 |
| 20260906084623 | 14 | 263 | 3.2 | 6.4 | 0.00 | 0.08 | 0.08 | 75 | 1025.2 |
| 20260906084123 | 14 | 263 | 1.6 | 6.4 | 0.00 | 0.08 | 0.08 | 74 | 1025.0 |
| 20260906083618 | 14 | 263 | 1.6 | 6.4 | 0.00 | 0.08 | 0.08 | 74 | 1025.0 |
| 20260906082454 | 14 | 263 | 1.6 | 6.4 | 0.00 | 0.08 | 0.08 | 74 | 1024.9 |
| 20260906081957 | 14 | 263 | 1.6 | 6.4 | 0.00 | 0.08 | 0.08 | 75 | 1024.9 |
| 20260906080839 | 14 | 263 | 3.2 | 8.0 | 0.00 | 0.08 | 0.08 | 75 | 1024.7 |
| 20260906080334 | 14 | 263 | 3.2 | 8.0 | 0.00 | 0.08 | 0.08 | 74 | 1024.7 |
| 20260906075217 | 15 | 263 | 1.6 | 8.0 | 0.00 | 0.08 | 0.08 | 74 | 1024.5 |
| 20260906074051 | 15 | 263 | 3.2 | 9.7 | 0.00 | 0.08 | 0.08 | 73 | 1024.4 |
| 20260906073545 | 15 | 263 | 4.8 | 9.7 | 0.00 | 0.08 | 0.08 | 73 | 1024.4 |
| 20260906073047 | 15 | 263 | 4.8 | 9.7 | 0.00 | 0.08 | 0.08 | 72 | 1024.4 |
| 20260906072549 | 15 | 263 | 4.8 | 9.7 | 0.00 | 0.08 | 0.08 | 73 | 1024.3 |
| 20260906071425 | 15 | 263 | 3.2 | 9.7 | 0.00 | 0.08 | 0.08 | 73 | 1024.3 |
| 20260906070301 | 15 | 263 | 1.6 | 9.7 | 0.00 | 0.08 | 0.08 | 73 | 1024.2 |
| 20260906065809 | 15 | 263 | 3.2 | 9.7 | 0.00 | 0.08 | 0.08 | 73 | 1024.0 |
| 20260906065255 | 15 | 263 | 4.8 | 9.7 | 0.00 | 0.08 | 0.08 | 72 | 1024.0 |
| 20260906064742 | 15 | 263 | 4.8 | 9.7 | 0.00 | 0.08 | 0.08 | 72 | 1024.0 |
| 20260906063600 | 15 | 263 | 3.2 | 12.9 | 0.00 | 0.08 | 0.08 | 71 | 1023.8 |
| 20260906063109 | 15 | 263 | 3.2 | 12.9 | 0.00 | 0.08 | 0.08 | 72 | 1023.8 |
| 20260906062555 | 15 | 263 | 3.2 | 12.9 | 0.00 | 0.08 | 0.08 | 71 | 1023.8 |
| 20260906062058 | 15 | 263 | 4.8 | 12.9 | 0.00 | 0.08 | 0.08 | 73 | 1023.8 |
| 20260906061553 | 15 | 263 | 4.8 | 12.9 | 0.00 | 0.08 | 0.08 | 72 | 1023.8 |
| 20260906061047 | 15 | 263 | 4.8 | 12.9 | 0.00 | 0.08 | 0.08 | 73 | 1023.8 |
| 20260906060553 | 15 | 263 | 4.8 | 12.9 | 0.00 | 0.08 | 0.08 | 73 | 1023.8 |
| 20260906060050 | 15 | 263 | 4.8 | 9.7 | 0.00 | 0.08 | 0.08 | 74 | 1023.8 |
| 20260906055600 | 15 | 263 | 4.8 | 16.1 | 0.00 | 0.08 | 0.08 | 74 | 1023.7 |
| 20260906055043 | 15 | 263 | 3.2 | 16.1 | 0.00 | 0.08 | 0.08 | 75 | 1023.7 |
| 20260906054536 | 15 | 263 | 4.8 | 16.1 | 0.00 | 0.08 | 0.08 | 75 | 1023.7 |
| 20260906053412 | 15 | 263 | 6.4 | 16.1 | 0.00 | 0.08 | 0.08 | 74 | 1023.4 |
| 20260906052908 | 15 | 263 | 3.2 | 16.1 | 0.00 | 0.08 | 0.08 | 75 | 1023.4 |
| 20260906052416 | 15 | 263 | 4.8 | 16.1 | 0.00 | 0.08 | 0.08 | 76 | 1023.3 |
| 20260906051917 | 15 | 263 | 6.4 | 16.1 | 0.00 | 0.08 | 0.08 | 76 | 1023.3 |
| 20260906051425 | 15 | 263 | 4.8 | 14.5 | 0.00 | 0.08 | 0.08 | 76 | 1023.3 |
| 20260906050908 | 15 | 263 | 4.8 | 14.5 | 0.00 | 0.08 | 0.08 | 76 | 1023.3 |
| 20260906050410 | 15 | 263 | 4.8 | 12.9 | 0.00 | 0.08 | 0.08 | 76 | 1023.3 |
| 20260906045906 | 15 | 263 | 4.8 | 12.9 | 0.00 | 0.08 | 0.08 | 77 | 1023.2 |
| 20260906045404 | 15 | 263 | 4.8 | 12.9 | 0.00 | 0.08 | 0.08 | 77 | 1023.2 |
| 20260906044900 | 15 | 263 | 4.8 | 12.9 | 0.00 | 0.08 | 0.08 | 78 | 1023.2 |
| 20260906044407 | 15 | 263 | 4.8 | 12.9 | 0.00 | 0.08 | 0.08 | 78 | 1023.2 |
| 20260906043251 | 15 | 263 | 4.8 | 12.9 | 0.00 | 0.08 | 0.08 | 78 | 1023.3 |
| 20260906042759 | 15 | 263 | 6.4 | 16.1 | 0.00 | 0.08 | 0.08 | 79 | 1023.4 |
| 20260906041622 | 15 | 263 | 8.0 | 16.1 | 0.00 | 0.08 | 0.08 | 79 | 1023.4 |
| 20260906041132 | 15 | 263 | 6.4 | 14.5 | 0.00 | 0.08 | 0.08 | 79 | 1023.5 |
| 20260906040633 | 15 | 263 | 4.8 | 14.5 | 0.00 | 0.10 | 0.08 | 79 | 1023.5 |
| 20260906035518 | 15 | 263 | 6.4 | 14.5 | 0.00 | 0.10 | 0.08 | 80 | 1023.8 |
| 20260906035016 | 15 | 263 | 6.4 | 14.5 | 0.00 | 0.10 | 0.08 | 80 | 1023.8 |
| 20260906033838 | 14 | 263 | 6.4 | 14.5 | 0.00 | 0.10 | 0.08 | 80 | 1023.8 |
| 20260906033333 | 14 | 263 | 6.4 | 14.5 | 0.00 | 0.10 | 0.08 | 80 | 1023.8 |
| 20260906032825 | 14 | 263 | 6.4 | 14.5 | 0.00 | 0.10 | 0.08 | 79 | 1023.8 |
| 20260906032306 | 14 | 263 | 4.8 | 16.1 | 0.00 | 0.10 | 0.08 | 79 | 1023.8 |
| 20260906031814 | 14 | 263 | 4.8 | 16.1 | 0.00 | 0.10 | 0.08 | 79 | 1023.8 |
| 20260906031259 | 14 | 263 | 6.4 | 16.1 | 0.00 | 0.10 | 0.08 | 79 | 1023.9 |
| 20260906030801 | 14 | 263 | 6.4 | 16.1 | 0.00 | 0.10 | 0.08 | 79 | 1023.9 |
| 20260906030258 | 14 | 263 | 4.8 | 14.5 | 0.00 | 0.10 | 0.08 | 79 | 1023.9 |
| 20260906025803 | 14 | 263 | 4.8 | 14.5 | 0.00 | 0.10 | 0.08 | 79 | 1024.0 |
| 20260906025259 | 15 | 263 | 4.8 | 12.9 | 0.00 | 0.10 | 0.08 | 79 | 1024.0 |
| 20260906024805 | 15 | 263 | 3.2 | 12.9 | 0.00 | 0.10 | 0.08 | 78 | 1024.0 |
| 20260906024256 | 15 | 263 | 4.8 | 16.1 | 0.00 | 0.10 | 0.08 | 77 | 1023.9 |
| 20260906023804 | 15 | 263 | 4.8 | 16.1 | 0.00 | 0.10 | 0.08 | 76 | 1023.9 |
| 20260906023253 | 15 | 263 | 6.4 | 16.1 | 0.00 | 0.10 | 0.08 | 76 | 1023.9 |
| 20260906022745 | 16 | 263 | 6.4 | 16.1 | 0.00 | 0.10 | 0.08 | 76 | 1024.1 |
| 20260906022245 | 15 | 263 | 3.2 | 14.5 | 0.00 | 0.10 | 0.08 | 78 | 1024.1 |
| 20260906021113 | 15 | 263 | 4.8 | 12.9 | 0.00 | 0.10 | 0.08 | 77 | 1024.3 |
| 20260906020613 | 15 | 263 | 4.8 | 12.9 | 0.00 | 0.10 | 0.08 | 77 | 1024.3 |
| 20260906015443 | 15 | 263 | 4.8 | 12.9 | 0.00 | 0.10 | 0.08 | 80 | 1024.4 |
| 20260906014947 | 14 | 263 | 4.8 | 12.9 | 0.00 | 0.10 | 0.08 | 81 | 1024.4 |
| 20260906014451 | 14 | 263 | 4.8 | 12.9 | 0.00 | 0.10 | 0.08 | 81 | 1024.4 |
| 20260906013317 | 15 | 263 | 3.2 | 12.9 | 0.00 | 0.10 | 0.08 | 85 | 1024.3 |
| 20260906012812 | 14 | 263 | 1.6 | 12.9 | 0.00 | 0.10 | 0.08 | 85 | 1024.4 |
| 20260906012307 | 13 | 263 | 0.0 | 6.4 | 0.00 | 0.10 | 0.08 | 88 | 1024.4 |
| 20260906011751 | 13 | 263 | 1.6 | 6.4 | 0.00 | 0.10 | 0.08 | 87 | 1024.4 |
| 20260906011247 | 13 | 263 | 1.6 | 6.4 | 0.00 | 0.10 | 0.08 | 87 | 1024.3 |
| 20260906010736 | 13 | 263 | 1.6 | 6.4 | 0.00 | 0.10 | 0.08 | 87 | 1024.3 |
| 20260906010231 | 13 | 263 | 1.6 | 6.4 | 0.00 | 0.10 | 0.08 | 87 | 1024.3 |
| 20260906005730 | 13 | 263 | 1.6 | 6.4 | 0.00 | 0.10 | 0.08 | 88 | 1024.3 |
| 20260906004604 | 13 | 263 | 0.0 | 6.4 | 0.00 | 0.10 | 0.08 | 88 | 1024.3 |
| 20260906004044 | 13 | 263 | 0.0 | 6.4 | 0.00 | 0.10 | 0.08 | 88 | 1024.3 |
| 20260906003545 | 13 | 263 | 1.6 | 6.4 | 0.00 | 0.10 | 0.08 | 88 | 1024.3 |
| 20260906003047 | 13 | 263 | 3.2 | 9.7 | 0.00 | 0.10 | 0.08 | 88 | 1024.3 |
| 20260906002528 | 13 | 263 | 3.2 | 9.7 | 0.00 | 0.10 | 0.08 | 87 | 1024.3 |
| 20260906002016 | 13 | 263 | 3.2 | 17.7 | 0.00 | 0.10 | 0.08 | 87 | 1024.3 |
| 20260906000854 | 13 | 263 | 4.8 | 17.7 | 0.00 | 0.25 | 0.08 | 87 | 1024.3 |
| 20260906000340 | 13 | 263 | 3.2 | 17.7 | 0.00 | 0.25 | 0.08 | 88 | 1024.3 |
| 20260905235840 | 13 | 263 | 0.0 | 4.8 | 0.00 | 0.25 | 0.08 | 88 | 1024.1 |
| 20260905235337 | 12 | 263 | 0.0 | 3.2 | 0.00 | 0.25 | 0.08 | 88 | 1024.1 |
| 20260905234211 | 12 | 263 | 0.0 | 0.0 | 0.00 | 0.25 | 0.08 | 88 | 1023.9 |
| 20260905232453 | 13 | 263 | 3.2 | 9.7 | 0.00 | 0.25 | 0.08 | 87 | 1023.8 |
| 20260905231956 | 13 | 263 | 0.0 | 9.7 | 0.00 | 0.25 | 0.08 | 88 | 1023.8 |
| 20260905231436 | 13 | 263 | 0.0 | 1.6 | 0.00 | 0.25 | 0.08 | 89 | 1023.8 |
| 20260905230922 | 13 | 263 | 0.0 | 0.0 | 0.00 | 0.28 | 0.08 | 89 | 1023.5 |
| 20260905230408 | 13 | 263 | 0.0 | 0.0 | 0.00 | 0.46 | 0.08 | 90 | 1023.5 |
| 20260905225917 | 13 | 263 | 0.0 | 0.0 | 0.00 | 0.46 | 0.08 | 90 | 1023.5 |
| 20260905225413 | 13 | 263 | 0.0 | 3.2 | 0.00 | 0.46 | 0.08 | 91 | 1023.4 |
| 20260905224905 | 13 | 263 | 0.0 | 0.0 | 0.00 | 0.46 | 0.08 | 91 | 1023.4 |
| 20260905224407 | 13 | 263 | 0.0 | 0.0 | 0.00 | 0.46 | 0.08 | 91 | 1023.4 |
| 20260905223852 | 12 | 263 | 0.0 | 0.0 | 0.00 | 0.46 | 0.08 | 92 | 1023.2 |
| 20260905223341 | 12 | 263 | 0.0 | 0.0 | 0.00 | 0.46 | 0.08 | 92 | 1023.2 |
| 20260905222843 | 12 | 263 | 0.0 | 0.0 | 0.00 | 0.46 | 0.08 | 92 | 1022.8 |
| 20260905222345 | 12 | 263 | 0.0 | 0.0 | 0.00 | 0.46 | 0.08 | 91 | 1022.8 |
| 20260905221217 | 12 | 263 | 0.0 | 0.0 | 0.00 | 0.46 | 0.08 | 92 | 1022.7 |
| 20260905220727 | 11 | 263 | 0.0 | 0.0 | 0.00 | 0.46 | 0.08 | 92 | 1022.7 |
| 20260905220233 | 11 | 263 | 0.0 | 0.0 | 0.00 | 0.46 | 0.08 | 91 | 1022.7 |
| 20260905215730 | 11 | 263 | 0.0 | 0.0 | 0.00 | 0.46 | 0.08 | 91 | 1022.6 |
| 20260905215214 | 11 | 263 | 0.0 | 0.0 | 0.00 | 0.43 | 0.05 | 91 | 1022.6 |
| 20260905214718 | 11 | 263 | 0.0 | 0.0 | 0.00 | 0.43 | 0.05 | 91 | 1022.6 |
| 20260905214206 | 11 | 263 | 0.0 | 3.2 | 0.00 | 0.43 | 0.05 | 91 | 1022.3 |
| 20260905213648 | 11 | 263 | 0.0 | 0.0 | 0.00 | 0.43 | 0.05 | 91 | 1022.3 |
| 20260905213139 | 11 | 263 | 0.0 | 0.0 | 0.00 | 0.43 | 0.05 | 91 | 1022.3 |
| 20260905212635 | 11 | 263 | 0.0 | 0.0 | 0.00 | 0.43 | 0.05 | 90 | 1022.2 |
| 20260905211456 | 11 | 263 | 0.0 | 0.0 | 0.00 | 0.43 | 0.05 | 90 | 1022.2 |
| 20260905210942 | 11 | 263 | 0.0 | 0.0 | 0.00 | 0.43 | 0.05 | 90 | 1021.8 |
| 20260905210437 | 11 | 263 | 0.0 | 0.0 | 0.00 | 0.43 | 0.05 | 90 | 1021.8 |
| 20260905205945 | 11 | 263 | 0.0 | 0.0 | 0.00 | 0.43 | 0.05 | 90 | 1021.8 |
| 20260905205439 | 11 | 263 | 0.0 | 0.0 | 0.00 | 0.43 | 0.05 | 90 | 1021.7 |
| 20260905204948 | 11 | 263 | 0.0 | 0.0 | 0.00 | 0.43 | 0.05 | 90 | 1021.7 |
| 20260905204444 | 11 | 263 | 0.0 | 0.0 | 0.00 | 0.43 | 0.05 | 90 | 1021.7 |
| 20260905203928 | 11 | 263 | 0.0 | 0.0 | 0.00 | 0.43 | 0.05 | 90 | 1021.7 |
| 20260905203429 | 11 | 263 | 0.0 | 0.0 | 0.00 | 0.43 | 0.05 | 90 | 1021.7 |
| 20260905202913 | 11 | 263 | 0.0 | 0.0 | 0.00 | 0.43 | 0.05 | 90 | 1021.7 |
| 20260905202412 | 11 | 263 | 0.0 | 0.0 | 0.00 | 0.43 | 0.05 | 90 | 1021.7 |
| 20260905201900 | 11 | 263 | 0.0 | 0.0 | 0.00 | 0.43 | 0.05 | 90 | 1021.7 |
| 20260905201355 | 11 | 263 | 0.0 | 0.0 | 0.00 | 0.43 | 0.05 | 90 | 1021.5 |
| 20260905200838 | 11 | 263 | 0.0 | 0.0 | 0.00 | 0.43 | 0.05 | 90 | 1021.5 |
| 20260905200322 | 11 | 263 | 0.0 | 0.0 | 0.00 | 0.43 | 0.05 | 90 | 1021.5 |
| 20260905195202 | 11 | 263 | 0.0 | 0.0 | 0.00 | 0.43 | 0.05 | 89 | 1021.3 |
| 20260905194643 | 11 | 263 | 0.0 | 0.0 | 0.00 | 0.46 | 0.05 | 89 | 1021.3 |
| 20260905194122 | 11 | 263 | 0.0 | 0.0 | 0.00 | 0.46 | 0.05 | 90 | 1021.2 |
| 20260905193627 | 12 | 263 | 0.0 | 0.0 | 0.00 | 0.46 | 0.05 | 89 | 1021.2 |
| 20260905193131 | 12 | 263 | 0.0 | 1.6 | 0.00 | 0.46 | 0.05 | 89 | 1021.2 |
| 20260905192623 | 12 | 263 | 1.6 | 12.9 | 0.00 | 0.46 | 0.05 | 89 | 1021.2 |
| 20260905191439 | 12 | 263 | 0.0 | 4.8 | 0.00 | 0.43 | 0.03 | 89 | 1021.2 |
| 20260905190920 | 12 | 263 | 0.0 | 0.0 | 0.00 | 0.43 | 0.03 | 89 | 1021.1 |
| 20260905190414 | 12 | 263 | 0.0 | 0.0 | 0.00 | 0.43 | 0.03 | 89 | 1021.1 |
| 20260905185915 | 12 | 263 | 0.0 | 0.0 | 0.00 | 0.43 | 0.03 | 89 | 1021.1 |
| 20260905185405 | 12 | 263 | 0.0 | 0.0 | 0.00 | 0.43 | 0.03 | 89 | 1020.9 |
| 20260905184900 | 12 | 263 | 0.0 | 0.0 | 0.00 | 0.43 | 0.03 | 89 | 1020.9 |
| 20260905184351 | 12 | 263 | 0.0 | 0.0 | 0.00 | 0.43 | 0.03 | 89 | 1020.7 |
| 20260905183858 | 12 | 263 | 0.0 | 3.2 | 0.00 | 0.43 | 0.03 | 89 | 1020.7 |
| 20260905183359 | 12 | 263 | 0.0 | 3.2 | 0.00 | 0.43 | 0.03 | 89 | 1020.7 |
| 20260905182845 | 12 | 263 | 0.0 | 0.0 | 0.00 | 0.43 | 0.03 | 88 | 1020.7 |
| 20260905181718 | 12 | 263 | 0.0 | 4.8 | 0.00 | 0.41 | 0.00 | 88 | 1020.7 |
| 20260905181224 | 12 | 263 | 3.2 | 9.7 | 0.00 | 0.41 | 0.00 | 88 | 1020.7 |
| 20260905180716 | 12 | 263 | 3.2 | 9.7 | 0.00 | 0.41 | 0.00 | 88 | 1020.7 |
| 20260905180210 | 12 | 263 | 1.6 | 9.7 | 0.00 | 0.41 | 0.00 | 88 | 1020.7 |
| 20260905175715 | 12 | 263 | 3.2 | 9.7 | 0.00 | 0.41 | 0.00 | 88 | 1020.7 |
| 20260905174544 | 12 | 263 | 3.2 | 9.7 | 0.00 | 0.38 | 0.00 | 87 | 1020.7 |
| 20260905172747 | 12 | 263 | 1.6 | 12.9 | 0.00 | 0.38 | 0.00 | 87 | 1020.9 |
| 20260905172254 | 12 | 263 | 1.6 | 12.9 | 0.00 | 0.38 | 0.00 | 87 | 1020.9 |
| 20260905171127 | 12 | 263 | 4.8 | 12.9 | 0.00 | 0.38 | 0.00 | 87 | 1021.1 |
| 20260905170018 | 12 | 263 | 1.6 | 9.7 | 0.00 | 0.38 | 0.00 | 87 | 1021.1 |
| 20260905165513 | 12 | 263 | 3.2 | 9.7 | 0.00 | 0.38 | 0.00 | 87 | 1021.1 |
| 20260905164346 | 12 | 263 | 4.8 | 12.9 | 0.00 | 0.38 | 0.00 | 86 | 1021.1 |
| 20260905163832 | 12 | 263 | 4.8 | 14.5 | 0.00 | 0.38 | 0.00 | 86 | 1021.1 |
| 20260905163334 | 12 | 263 | 4.8 | 14.5 | 0.00 | 0.38 | 0.00 | 86 | 1021.1 |
| 20260905162831 | 12 | 263 | 4.8 | 14.5 | 0.00 | 0.38 | 0.00 | 86 | 1021.1 |
| 20260905162331 | 12 | 263 | 3.2 | 14.5 | 0.00 | 0.38 | 0.00 | 86 | 1021.1 |
| 20260905161143 | 12 | 263 | 3.2 | 9.7 | 0.00 | 0.38 | 0.00 | 85 | 1021.2 |
| 20260905160629 | 12 | 263 | 3.2 | 8.0 | 0.00 | 0.38 | 0.00 | 85 | 1021.2 |
| 20260905160117 | 12 | 263 | 1.6 | 8.0 | 0.00 | 0.38 | 0.00 | 85 | 1021.2 |
| 20260905155604 | 12 | 263 | 1.6 | 9.7 | 0.00 | 0.38 | 0.00 | 84 | 1021.2 |
| 20260905155050 | 13 | 263 | 3.2 | 9.7 | 0.00 | 0.38 | 0.00 | 84 | 1021.2 |
| 20260905153951 | 13 | 263 | 3.2 | 9.7 | 0.00 | 0.38 | 0.00 | 83 | 1021.1 |
| 20260905153500 | 13 | 263 | 3.2 | 9.7 | 0.00 | 0.38 | 0.00 | 83 | 1021.1 |
| 20260905152955 | 13 | 263 | 3.2 | 9.7 | 0.00 | 0.38 | 0.00 | 82 | 1021.1 |
| 20260905152502 | 13 | 263 | 3.2 | 9.7 | 0.00 | 0.38 | 0.00 | 82 | 1021.1 |
| 20260905151338 | 13 | 263 | 1.6 | 8.0 | 0.00 | 0.38 | 0.00 | 80 | 1021.1 |
| 20260905150822 | 13 | 263 | 0.0 | 9.7 | 0.00 | 0.38 | 0.00 | 80 | 1021.1 |
| 20260905150320 | 13 | 263 | 1.6 | 9.7 | 0.00 | 0.38 | 0.00 | 80 | 1021.1 |
| 20260905145823 | 13 | 263 | 3.2 | 17.7 | 0.00 | 0.38 | 0.00 | 79 | 1021.1 |
| 20260905145306 | 13 | 263 | 4.8 | 17.7 | 0.00 | 0.38 | 0.00 | 79 | 1021.1 |
| 20260905144757 | 13 | 263 | 4.8 | 17.7 | 0.00 | 0.38 | 0.00 | 79 | 1021.1 |
| 20260905144245 | 13 | 263 | 3.2 | 17.7 | 0.00 | 0.38 | 0.00 | 79 | 1021.0 |
| 20260905143115 | 13 | 263 | 3.2 | 12.9 | 0.00 | 0.38 | 0.00 | 79 | 1021.0 |
| 20260905142618 | 13 | 263 | 4.8 | 17.7 | 0.00 | 0.38 | 0.38 | 79 | 1021.1 |
| 20260905142107 | 13 | 263 | 6.4 | 17.7 | 0.00 | 0.38 | 0.38 | 79 | 1021.1 |
| 20260905141613 | 13 | 263 | 8.0 | 20.9 | 0.00 | 0.38 | 0.38 | 79 | 1021.1 |
| 20260905140441 | 13 | 263 | 8.0 | 20.9 | 0.00 | 0.38 | 0.38 | 79 | 1021.1 |
| 20260905134648 | 13 | 263 | 4.8 | 14.5 | 0.00 | 0.41 | 0.38 | 81 | 1021.0 |
| 20260905134129 | 13 | 263 | 4.8 | 16.1 | 0.00 | 0.41 | 0.38 | 81 | 1020.8 |
| 20260905133616 | 13 | 263 | 4.8 | 16.1 | 0.00 | 0.41 | 0.38 | 80 | 1020.8 |
| 20260905133120 | 13 | 263 | 4.8 | 24.1 | 0.00 | 0.41 | 0.38 | 80 | 1020.8 |
| 20260905132004 | 13 | 263 | 9.7 | 24.1 | 0.00 | 0.41 | 0.38 | 79 | 1020.8 |
| 20260905131513 | 13 | 263 | 9.7 | 24.1 | 0.00 | 0.41 | 0.38 | 79 | 1020.8 |